Skip Page Navigation
NASA JPL Caltech
NASA Logo - Jet Propulsion Laboratory + View the NASA Portal
+ Center for Near-Earth Object Studies
JPL Home Earth Solar System Stars & Galaxies Technology
JPL Solar System Dynamics
BODIES ORBITS EPHEMERIDES TOOLS PHYSICAL DATA DISCOVERY FAQ SITE MAP
IMPORTANT: The SSD Announcement email list is now available. Major changes are coming in the near future, including possible hostname and/or URL changes. To be notified of such changes, subscribe to this email list.

Please visit this page for more details.


JPL Small-Body Database Browser
Search: [ help ]  
351339 (2004 XF183)
Classification: Outer Main-belt Asteroid          SPK-ID: 2351339
Ephemeris | Orbit Diagram | Orbital Elements | Mission Design | Physical Parameters | Discovery Circumstances ]

[ show orbit diagram ]
Orbital Elements at Epoch 2458600.5 (2019-Apr-27.0) TDB
Reference: JPL 5 (heliocentric ecliptic J2000)
 Element Value Uncertainty (1-sigma)   Units 
e .2671620189058014 1.3292e-07  
a 3.975173095924735 6.8684e-08 au
q 2.913157826117457 5.5609e-07 au
i 3.449528685800958 1.5389e-05 deg
node 42.40501663146012 0.00016834 deg
peri 6.403085014525323 0.00017656 deg
M 321.127173099645 3.7891e-05 deg
tp 2458913.090746184432
(2020-Mar-04.59074618)
0.00030677 TDB
period 2894.892849312378
7.93
7.5028e-05
2.054e-07
d
yr
n .1243569343457774 3.223e-09 deg/d
Q 5.037188365732012 8.7034e-08 au
  Orbit Determination Parameters
   # obs. used (total)      96  
   data-arc span      5443 days (14.90 yr)  
   first obs. used      2004-12-03  
   last obs. used      2019-10-29  
   planetary ephem.      DE431  
   SB-pert. ephem.      SB431-N16  
   condition code      0  
   norm. resid. RMS      .54821  
   source      ORB  
   producer      Otto Matic  
   solution date      2019-Nov-08 10:47:36  

Additional Information
 Earth MOID = 1.92301 au 
 Jupiter MOID = .390623 au 
 T_jup = 2.990 
[ show covariance matrix ]

Ephemeris | Orbit Diagram | Orbital Elements | Mission Design | Physical Parameters | Discovery Circumstances ]

Physical Parameter Table
Parameter Symbol Value Units Sigma Reference Notes
absolute magnitude H 15.7   n/a MPO249215  

351339 (2004 XF183)          Discovered 2004-Dec-03 by Spacewatch at Kitt Peak
Reference: 20130127/Numbers.arcLast Updated: 2013-01-31
Ephemeris | Orbit Diagram | Orbital Elements | Mission Design | Physical Parameters | Discovery Circumstances ]
ABOUT SSD CREDITS/AWARDS PRIVACY/COPYRIGHT GLOSSARY LINKS
FirstGov
(server date/time)  
NASA Home Page
Site Manager:   Ryan S. Park
Webmaster  Alan B. Chamberlin